Hourly Weather Roundup
Issued by NWS Central Illinois

Home | Current Version | Previous Version | Text Only | Print | Product List | Glossary On
Versions: 1 2 3 4 5 6 7 8 9 10 11 12 13 14 15 16 17 18 19 20 21 22 23 24 25 26 27 28 29 30 31 32 33 34 35 36 37 38 39 40 41 42 43 44 45 46 47 48 49 50
000
NZUS43 KILX 231810
HWRILX

AREA WEATHER ROUNDUP
NATIONAL WEATHER SERVICE, LINCOLN IL
100 PM CDT WED JUL 23 2014


CITY           SKY/WX    TMP DP  RH WIND       PRES   REMARKS
BLOOMINGTON    MOSUNNY   74  58  57 NE17      30.14F
CHAMPAIGN      SUNNY     78  62  57 N16G23    30.09F HX  80
6HR MIN TEMP:  68; 6HR MAX TEMP:  78;

DECATUR        MOSUNNY   81  75  83 N15       30.11F HX  86
FLORA          CLOUDY    78  71  80 NW10      30.04F
6HR MIN TEMP:  71; 6HR MAX TEMP:  79;

GALESBURG      MOSUNNY   79  62  56 NE13      30.16S HX  80
JACKSONVILLE   SUNNY     81  65  58 NE16      30.12F HX  83
6HR MIN TEMP:  75; 6HR MAX TEMP:  81;

LACON          MOSUNNY   76  56  49 NE12G20   30.15S
6HR MIN TEMP:  67; 6HR MAX TEMP:  76;

LAWRENCEVILLE  CLOUDY    75  70  84 E5        30.04F
6HR MIN TEMP:  68; 6HR MAX TEMP:  76; 6HR PCP:  0.02;

LITCHFIELD     CLOUDY    78  67  68 N14       30.08  HX  80
$$


CITY           SKY/WX    TMP DP  RH WIND       PRES   REMARKS
LINCOLN        SUNNY     79  62  55 N12G18    30.09F HX  80
6HR MIN TEMP:  71; 6HR MAX TEMP:  79;

MACOMB         SUNNY     76  62  60 NE8G17    30.17S
MATTOON        CLOUDY    75  64  68 N16       30.06F
6HR MIN TEMP:  69; 6HR MAX TEMP:  75;

MT CARMEL AP   CLOUDY    79  72  78 CALM      30.04S HX  82
OLNEY-NOBLE AP CLOUDY    73  70  88 N9G22     30.04F FOG
PARIS          CLOUDY    72  66  80 N5        30.08F
6HR MIN TEMP:  70; 6HR MAX TEMP:  73;

PEORIA         SUNNY     79  58  48 E15G22    30.15R HX  80
6HR MIN TEMP:  71; 6HR MAX TEMP:  80;

PONTIAC        MOSUNNY   75  57  53 NE12      30.14F
RANTOUL        SUNNY     78  57  48 NE20      30.11F
6HR MIN TEMP:  69; 6HR MAX TEMP:  78;

ROBINSON       CLOUDY    75  72  92 N14       30.06S FOG
6HR MIN TEMP:  69; 6HR MAX TEMP:  77; 6HR PCP:  0.02;

SPRINGFIELD    SUNNY     81  63  54 N15G23    30.11S HX  82
6HR MIN TEMP:  74; 6HR MAX TEMP:  81;

TAYLORVILLE    CLOUDY    73  63  68 N13G18    30.09F
$$

...REGIONAL REPORTS...


CITY           SKY/WX    TMP DP  RH WIND       PRES   REMARKS
CHICAGO O`HARE MOSUNNY   74  48  39 NE20G26   30.16F
KANKAKEE       SUNNY     72  58  61 N15G23    30.14F
MOLINE         SUNNY     79  55  43 NE13G22   30.17R
MOUNT VERNON   CLOUDY    75  66  73 NW3       30.05S
PITTSFIELD     CLOUDY    80  68  67 N6        30.12F HX  82
QUINCY         MOSUNNY   80  66  62 N14       30.13S HX  82
ROCKFORD       PTSUNNY   75  54  47 NE13      30.19F
$$


CITY           SKY/WX    TMP DP  RH WIND       PRES   REMARKS
BURLINGTON     MOSUNNY   78  62  57 NE13      30.16S HX  80
CEDAR RAPIDS   SUNNY     78  54  43 NE13      30.20S
DES MOINES     PTSUNNY   83  59  44 NE8       30.21S HX  83
KIRKSVILLE     MOSUNNY   82  65  56 NE16      30.18R HX  84
OTTUMWA        SUNNY     80  58  46 NE10      30.18F HX  80
ST LOUIS       CLOUDY    81  70  69 NE13      30.07F HX  84
$$


CITY           SKY/WX    TMP DP  RH WIND       PRES   REMARKS
TERRE HAUTE    CLOUDY    70  68  93 N9        30.06F FOG
EVANSVILLE     CLOUDY    78  68  71 NE12      30.04R HX  80
INDIANAPOLIS   CLOUDY    74  68  81 W7        30.05S
LAFAYETTE      MOSUNNY   76  63  64 N15       30.07F
MADISON        PTSUNNY   78  54  43 N15       30.19F
MILWAUKEE      MOSUNNY   68  54  60 NE16      30.18F
$$





USA.gov is the U.S. government's official web portal to all federal, state and local government web resources and services.